Saint Bonnet de Bellac- Haute Vienne - France
Donnes mto: mercredi, 01/08/2012
Date Horaire Temp. E. Hum. E. P.atmo. Pluie Vent Direction Direction Ensoleilleme Solaire P. de rose Temp au vent Rafales
01/08/2012 00:00 17,7 C 66 % 1013,9 hPa 0,0 mm 0,0 km/h (0 Bft) E-NE 67 0 min 0 W/m 11,3 C 17,7 C 0,0 km/h (0 Bft)
01/08/2012 00:10 17,4 C 67 % 1013,8 hPa 0,0 mm 1,1 km/h (1 Bft) E-NE 67 0 min 0 W/m 11,2 C 17,4 C 4,0 km/h (1 Bft)
01/08/2012 00:20 17,3 C 68 % 1013,7 hPa 0,0 mm 0,0 km/h (0 Bft) E-NE 67 0 min 0 W/m 11,3 C 17,3 C 0,0 km/h (0 Bft)
01/08/2012 00:30 17,1 C 69 % 1013,6 hPa 0,0 mm 0,0 km/h (0 Bft) E-NE 67 0 min 0 W/m 11,4 C 17,1 C 0,0 km/h (0 Bft)
01/08/2012 00:40 17,0 C 70 % 1013,5 hPa 0,0 mm 0,0 km/h (0 Bft) E-SE 112 0 min 0 W/m 11,5 C 17,0 C 0,0 km/h (0 Bft)
01/08/2012 00:50 16,9 C 70 % 1013,4 hPa 0,0 mm 0,0 km/h (0 Bft) E 90 0 min 0 W/m 11,4 C 16,9 C 0,0 km/h (0 Bft)
01/08/2012 01:00 16,6 C 71 % 1013,3 hPa 0,0 mm 0,0 km/h (0 Bft) E 90 0 min 0 W/m 11,3 C 16,6 C 0,0 km/h (0 Bft)
01/08/2012 01:10 16,4 C 71 % 1013,3 hPa 0,0 mm 0,0 km/h (0 Bft) E 90 0 min 0 W/m 11,1 C 16,4 C 0,0 km/h (0 Bft)
01/08/2012 01:20 16,2 C 72 % 1013,2 hPa 0,0 mm 0,0 km/h (0 Bft) E 90 0 min 0 W/m 11,1 C 16,2 C 0,0 km/h (0 Bft)
01/08/2012 01:30 15,9 C 73 % 1013,1 hPa 0,0 mm 0,0 km/h (0 Bft) E 90 0 min 0 W/m 11,1 C 15,9 C 0,0 km/h (0 Bft)
01/08/2012 01:40 15,8 C 74 % 1013,0 hPa 0,0 mm 0,0 km/h (0 Bft) E 90 0 min 0 W/m 11,2 C 15,8 C 0,0 km/h (0 Bft)
01/08/2012 01:50 15,6 C 75 % 1013,0 hPa 0,0 mm 0,0 km/h (0 Bft) E 90 0 min 0 W/m 11,2 C 15,6 C 0,0 km/h (0 Bft)
01/08/2012 02:00 15,4 C 75 % 1012,8 hPa 0,0 mm 0,0 km/h (0 Bft) E 90 0 min 0 W/m 11,0 C 15,4 C 0,0 km/h (0 Bft)
01/08/2012 02:10 15,4 C 76 % 1012,6 hPa 0,0 mm 0,0 km/h (0 Bft) E-NE 67 0 min 0 W/m 11,2 C 15,4 C 0,0 km/h (0 Bft)
01/08/2012 02:20 15,4 C 77 % 1012,4 hPa 0,0 mm 0,0 km/h (0 Bft) E-NE 67 0 min 0 W/m 11,4 C 15,4 C 0,0 km/h (0 Bft)
01/08/2012 02:30 15,4 C 77 % 1012,3 hPa 0,0 mm 0,4 km/h (0 Bft) E 90 0 min 0 W/m 11,4 C 15,4 C 4,0 km/h (1 Bft)
01/08/2012 02:40 15,6 C 78 % 1012,2 hPa 0,0 mm 1,4 km/h (1 Bft) E-NE 67 0 min 0 W/m 11,8 C 15,6 C 4,0 km/h (1 Bft)
01/08/2012 02:50 15,6 C 78 % 1012,1 hPa 0,0 mm 5,0 km/h (1 Bft) E 90 0 min 0 W/m 11,8 C 15,6 C 8,6 km/h (2 Bft)
01/08/2012 03:02 15,7 C 79 % 1011,9 hPa 0,0 mm 0,0 km/h (0 Bft) E-SE 112 0 min 0 W/m 12,1 C 15,7 C 3,6 km/h (1 Bft)
01/08/2012 03:10 15,6 C 79 % 1011,9 hPa 0,0 mm 1,1 km/h (1 Bft) SE 135 0 min 0 W/m 12,0 C 15,6 C 3,6 km/h (1 Bft)
01/08/2012 03:20 15,6 C 79 % 1011,9 hPa 0,0 mm 1,1 km/h (1 Bft) E-SE 112 0 min 0 W/m 12,0 C 15,6 C 1,1 km/h (1 Bft)
01/08/2012 03:30 15,6 C 79 % 1011,9 hPa 0,0 mm 0,7 km/h (0 Bft) E-SE 112 0 min 0 W/m 12,0 C 15,6 C 3,6 km/h (1 Bft)
01/08/2012 03:40 15,4 C 79 % 1011,7 hPa 0,0 mm 0,0 km/h (0 Bft) E-SE 112 0 min 0 W/m 11,8 C 15,4 C 0,0 km/h (0 Bft)
01/08/2012 03:50 15,3 C 79 % 1011,6 hPa 0,0 mm 0,7 km/h (0 Bft) E-NE 67 0 min 0 W/m 11,7 C 15,3 C 0,7 km/h (0 Bft)
01/08/2012 04:00 15,1 C 80 % 1011,4 hPa 0,0 mm 0,0 km/h (0 Bft) SE 135 0 min 0 W/m 11,7 C 15,1 C 0,0 km/h (0 Bft)
01/08/2012 04:10 14,9 C 81 % 1011,2 hPa 0,0 mm 0,4 km/h (0 Bft) SE 135 0 min 0 W/m 11,7 C 14,9 C 3,6 km/h (1 Bft)
01/08/2012 04:20 14,9 C 82 % 1011,1 hPa 0,0 mm 2,2 km/h (1 Bft) E-SE 112 0 min 0 W/m 11,9 C 14,9 C 3,6 km/h (1 Bft)
01/08/2012 04:30 14,9 C 82 % 1011,1 hPa 0,0 mm 1,4 km/h (1 Bft) E-SE 112 0 min 0 W/m 11,9 C 14,9 C 1,4 km/h (1 Bft)
01/08/2012 04:40 14,8 C 81 % 1010,9 hPa 0,0 mm 1,4 km/h (1 Bft) SE 135 0 min 0 W/m 11,6 C 14,8 C 4,0 km/h (1 Bft)
01/08/2012 04:50 14,8 C 82 % 1011,0 hPa 0,0 mm 1,8 km/h (1 Bft) SE 135 0 min 0 W/m 11,8 C 14,8 C 4,3 km/h (1 Bft)
01/08/2012 05:00 14,8 C 82 % 1011,0 hPa 0,0 mm 4,3 km/h (1 Bft) SE 135 0 min 0 W/m 11,8 C 14,8 C 7,9 km/h (2 Bft)
01/08/2012 05:10 14,8 C 82 % 1010,9 hPa 0,0 mm 2,2 km/h (1 Bft) E-SE 112 0 min 0 W/m 11,8 C 14,8 C 4,0 km/h (1 Bft)
01/08/2012 05:20 14,7 C 82 % 1010,7 hPa 0,0 mm 1,8 km/h (1 Bft) E 90 0 min 0 W/m 11,7 C 14,7 C 4,3 km/h (1 Bft)
01/08/2012 05:30 14,6 C 83 % 1010,6 hPa 0,0 mm 0,0 km/h (0 Bft) S-SE 157 0 min 0 W/m 11,7 C 14,6 C 0,0 km/h (0 Bft)
01/08/2012 05:40 14,5 C 83 % 1010,6 hPa 0,0 mm 0,4 km/h (0 Bft) S 180 0 min 0 W/m 11,6 C 14,5 C 0,4 km/h (0 Bft)
01/08/2012 05:50 14,4 C 84 % 1010,7 hPa 0,0 mm 0,4 km/h (0 Bft) S-SO 202 0 min 0 W/m 11,7 C 14,4 C 0,4 km/h (0 Bft)
01/08/2012 06:00 14,3 C 83 % 1010,7 hPa 0,0 mm 1,4 km/h (1 Bft) E-NE 67 0 min 0 W/m 11,5 C 14,3 C 1,4 km/h (1 Bft)
01/08/2012 06:10 14,4 C 84 % 1010,7 hPa 0,0 mm 2,2 km/h (1 Bft) E-SE 112 0 min 0 W/m 11,7 C 14,4 C 4,3 km/h (1 Bft)
01/08/2012 06:20 14,5 C 84 % 1010,2 hPa 0,0 mm 4,0 km/h (1 Bft) NE 45 0 min 0 W/m 11,8 C 14,5 C 7,2 km/h (2 Bft)
01/08/2012 06:30 14,4 C 83 % 1010,8 hPa 0,0 mm 0,4 km/h (0 Bft) O 270 0 min 0 W/m 11,5 C 14,4 C 0,4 km/h (0 Bft)
01/08/2012 06:40 14,3 C 84 % 1011,0 hPa 0,0 mm 0,0 km/h (0 Bft) S-SE 157 0 min 0 W/m 11,6 C 14,3 C 2,9 km/h (1 Bft)
01/08/2012 06:50 14,5 C 84 % 1010,7 hPa 0,0 mm 0,4 km/h (0 Bft) SE 135 0 min 0 W/m 11,8 C 14,5 C 4,0 km/h (1 Bft)
01/08/2012 07:00 14,9 C 84 % 1010,8 hPa 0,0 mm 0,0 km/h (0 Bft) O 270 0 min 0 W/m 12,2 C 14,9 C 0,0 km/h (0 Bft)
01/08/2012 07:10 15,3 C 84 % 1010,7 hPa 0,0 mm 3,6 km/h (1 Bft) E 90 0 min 0 W/m 12,6 C 15,3 C 3,6 km/h (1 Bft)
01/08/2012 07:20 15,7 C 83 % 1010,4 hPa 0,0 mm 3,6 km/h (1 Bft) E-SE 112 0 min 0 W/m 12,8 C 15,7 C 3,6 km/h (1 Bft)
01/08/2012 07:30 16,0 C 82 % 1010,1 hPa 0,0 mm 2,5 km/h (1 Bft) E 90 0 min 0 W/m 12,9 C 16,0 C 3,2 km/h (1 Bft)
01/08/2012 07:40 16,3 C 81 % 1009,9 hPa 0,0 mm 1,1 km/h (1 Bft) E-NE 67 0 min 0 W/m 13,0 C 16,3 C 3,2 km/h (1 Bft)
01/08/2012 07:50 16,4 C 81 % 1010,0 hPa 0,0 mm 2,9 km/h (1 Bft) SE 135 0 min 0 W/m 13,1 C 16,4 C 4,3 km/h (1 Bft)
01/08/2012 08:00 17,1 C 79 % 1010,0 hPa 0,0 mm 1,1 km/h (1 Bft) E 90 0 min 0 W/m 13,4 C 17,1 C 4,0 km/h (1 Bft)
01/08/2012 08:10 17,3 C 79 % 1010,0 hPa 0,0 mm 1,8 km/h (1 Bft) SE 135 0 min 0 W/m 13,6 C 17,3 C 1,8 km/h (1 Bft)
01/08/2012 08:20 17,7 C 78 % 1010,0 hPa 0,0 mm 0,0 km/h (0 Bft) E-SE 112 0 min 0 W/m 13,8 C 17,7 C 0,0 km/h (0 Bft)
01/08/2012 08:30 18,2 C 77 % 1010,0 hPa 0,0 mm 0,7 km/h (0 Bft) E 90 0 min 0 W/m 14,1 C 18,2 C 0,7 km/h (0 Bft)
01/08/2012 08:40 18,8 C 77 % 1010,0 hPa 0,0 mm 0,0 km/h (0 Bft) E 90 0 min 0 W/m 14,7 C 18,8 C 0,0 km/h (0 Bft)
01/08/2012 08:50 19,4 C 77 % 1010,0 hPa 0,0 mm 0,4 km/h (0 Bft) SE 135 0 min 0 W/m 15,3 C 19,4 C 1,4 km/h (1 Bft)
01/08/2012 09:00 20,1 C 76 % 1010,1 hPa 0,0 mm 2,5 km/h (1 Bft) S 180 0 min 0 W/m 15,7 C 20,1 C 6,1 km/h (2 Bft)
01/08/2012 09:10 21,3 C 69 % 1010,1 hPa 0,0 mm 6,8 km/h (2 Bft) S 180 0 min 0 W/m 15,4 C 21,3 C 6,8 km/h (2 Bft)
01/08/2012 09:20 22,2 C 66 % 1010,1 hPa 0,0 mm 3,6 km/h (1 Bft) S-SO 202 0 min 0 W/m 15,5 C 22,2 C 8,3 km/h (2 Bft)
01/08/2012 09:30 22,8 C 61 % 1010,1 hPa 0,0 mm 8,6 km/h (2 Bft) S 180 0 min 0 W/m 14,9 C 22,8 C 13,0 km/h (3 Bft)
01/08/2012 09:40 23,4 C 59 % 1010,0 hPa 0,0 mm 6,5 km/h (2 Bft) S 180 0 min 0 W/m 14,9 C 23,4 C 10,1 km/h (2 Bft)
01/08/2012 09:50 24,0 C 57 % 1010,1 hPa 0,0 mm 7,6 km/h (2 Bft) S 180 0 min 0 W/m 14,9 C 24,0 C 13,7 km/h (3 Bft)
01/08/2012 10:00 24,6 C 55 % 1010,1 hPa 0,0 mm 4,7 km/h (1 Bft) S-SO 202 0 min 0 W/m 14,9 C 24,6 C 7,6 km/h (2 Bft)
01/08/2012 10:10 25,0 C 55 % 1010,1 hPa 0,0 mm 8,3 km/h (2 Bft) S-SO 202 0 min 0 W/m 15,3 C 25,0 C 14,4 km/h (3 Bft)
01/08/2012 10:20 25,8 C 53 % 1010,2 hPa 0,0 mm 9,4 km/h (2 Bft) S-SO 202 0 min 0 W/m 15,5 C 25,8 C 14,0 km/h (3 Bft)
01/08/2012 10:30 25,9 C 53 % 1010,2 hPa 0,0 mm 6,1 km/h (2 Bft) S-SE 157 0 min 0 W/m 15,6 C 25,9 C 6,1 km/h (2 Bft)
01/08/2012 10:40 26,1 C 54 % 1010,4 hPa 0,0 mm 10,8 km/h (2 Bft) S-SO 202 0 min 0 W/m 16,0 C 26,1 C 19,8 km/h (3 Bft)
01/08/2012 10:50 26,2 C 55 % 1010,3 hPa 0,0 mm 6,5 km/h (2 Bft) S-SO 202 0 min 0 W/m 16,4 C 26,2 C 11,2 km/h (2 Bft)
01/08/2012 11:00 26,8 C 54 % 1010,4 hPa 0,0 mm 12,2 km/h (2 Bft) S 180 0 min 0 W/m 16,7 C 26,8 C 20,2 km/h (4 Bft)
_ Min-Heure 06:40 10:30 07:40 - 08:40 - - - - 02:00 06:40 08:40
Minimum _ 14,3 C 53 % 1009,9 hPa - 0,0 km/h (0 Bft) - - - - 11,0 C 14,3 C 0,0 km/h (0 Bft)
_ Max-Heure 11:00 07:10 00:00 11:00 11:00 - - 11:00 11:00 11:00 11:00 11:00
Maximum _ 26,8 C 84 % 1013,9 hPa 0,0 mm 12,2 km/h
S (2 Bft)
- - 0 min 0 W/m 16,7 C 26,8 C 20,2 km/h
S (4 Bft)
Moyenne _ 17,4 C 75 % 1011,2 hPa #0,0 mm 2,2 km/h (1 Bft) E - #0 min. 0 W/m 12,7 C 17,4 C 4,0 km/h (1 Bft)
Saint Bonnet de Bellac- Haute Vienne - France